Regional Weather Roundup
Issued by NWS State College, PA

Home | Current Version | Previous Version | Graphics & Text | Print | Product List | Glossary Off
Versions: 1 2 3 4 5 6 7 8 9 10 11 12 13 14 15 16 17 18 19 20 21 22 23 24 25 26 27 28 29 30 31 32 33 34 35 36 37 38 39 40 41 42 43 44 45 46 47 48 49 50

000
ASUS41 KCTP 041803
RWRCTP

REGIONAL WEATHER ROUNDUP
NATIONAL WEATHER SERVICE STATE COLLEGE PA
200 PM EDT FRI SEP 04 2015

Note: "fair" indicates few or no clouds below 12,000 feet with no
significant weather and/or obstructions to visibility.

* = STATION THAT DOES NOT REPORT PRECIPITATION /E.G. RAIN...SNOW...ETC/
    THUNDER OR FOG.

PAZ002>004-007>009-013>016-020>023-029>032-041900-
WESTERN PENNSYLVANIA

CITY           SKY/WX    TMP DP  RH WIND       PRES   REMARKS
ERIE           MOSUNNY   81  68  64 N8        30.07R
MEADVILLE      MOSUNNY   84  60  44 SW6       30.09F
FRANKLIN*      MOSUNNY   82  63  51 CALM      30.12S
NEW CASTLE     FAIR      85  67  54 CALM      30.09F
BEAVER COUNTY  SUNNY     84  64  51 CALM      30.09F
BUTLER*        MOSUNNY   84  63  48 S3        30.11S
PITTSBURGH INT PTSUNNY   84  59  42 CALM      30.08F
PITTSBURGH     MOSUNNY   85  59  41 S8        30.08F
INDIANA*       SUNNY     82  68  61 VRB3      30.12F
LATROBE        PTSUNNY   82  66  57 CALM      30.10F
WASHINGTON CO* MOSUNNY   84  61  45 CALM      30.10S
$$

PAZ004>006-010>012-017>019-024>028-033>037-041-042-045-046-049>053-041900-
CENTRAL PENNSYLVANIA

CITY           SKY/WX    TMP DP  RH WIND       PRES   REMARKS
BRADFORD       PTSUNNY   82  64  54 VRB6      30.13S
DUBOIS         PTSUNNY   85  64  49 VRB5      30.11F
CLEARFIELD     PTSUNNY   86  65  49 VRB3      30.11F
JOHNSTOWN      PTSUNNY   80  64  58 W3        30.14S
ALTOONA        MOSUNNY   87  65  47 VRB3      30.10F
STATE COLLEGE  MOSUNNY   84  70  61 VRB6      30.10F
WILLIAMSPORT   MOSUNNY   86  66  51 VRB3      30.06S
SELINSGROVE    MOSUNNY   89  69  51 CALM      30.05F
FT INDIANTOWN  SUNNY     87  67  51 VRB6      30.06S
CAPITAL CITY   MOSUNNY   90  66  45 NE7       30.04S
HARRISBURG     MOSUNNY   92  68  45 S6        30.04S HX  96
YORK           MOSUNNY   87  70  56 E6        30.05F
$$

PAZ038>040-043-044-047-048-054-055-060>062-067>071-041900-
EASTERN PENNSYLVANIA

CITY           SKY/WX    TMP DP  RH WIND       PRES   REMARKS
SCRANTON       PTSUNNY   85  67  54 SE9       30.09S
MOUNT POCONO   PTSUNNY   77  67  71 E10       30.16S
ALLENTOWN      PTSUNNY   86  69  56 E9        30.07F
QUAKERTOWN*    MOCLDY    86  70  58 SE9       30.08S
READING        MOSUNNY   89  67  47 E7        30.05S
LANCASTER      PTSUNNY   88  67  49 E7        30.05S
COATESVILLE    MOCLDY    84  68  58 NE3       30.07F
POTTSTOWN      PTSUNNY   84  70  62 E9        30.07S
BLUE BELL      MOSUNNY   88  72  58 E10       30.06S
DOYLESTOWN     MOSUNNY   82  70  66 VRB3      30.07F
WILLOW GROVE   NOT AVBL
NORTH PHILA    MOSUNNY   88  67  49 E14       30.08S
PHILADELPHIA   MOSUNNY   91  69  48 E15G21    30.03F HX  96
$$



USA.gov is the U.S. government's official web portal to all federal, state and local government web resources and services.